CW2377 Weather Reports


Display with metric or nautical units.
time (UTC)temp
F
wind
direction
speed
MPH
gust
MPH
rain 1hr
in
rain 24hr
in
rain mn
in
humidity
%
barometer
mb
20260510091703 41 17 0.0 0.0 0.00 0.00 0.00 83 1015.0
20260510090704 41 17 0.0 0.0 0.00 0.00 0.00 83 1015.0
20260510090204 42 17 0.0 0.0 0.00 0.00 0.00 82 1014.8
20260510085703 42 17 0.0 0.0 0.00 0.00 0.00 82 1014.7
20260510085203 42 17 0.0 0.0 0.00 0.00 0.00 82 1014.7
20260510084705 42 17 0.0 0.0 0.00 0.00 0.00 80 1014.7
20260510084204 42 17 0.0 0.0 0.00 0.00 0.00 80 1014.6
20260510083704 43 17 0.0 0.0 0.00 0.00 0.00 80 1014.5
20260510083203 43 17 0.0 0.0 0.00 0.00 0.00 79 1014.4
20260510081705 43 17 0.0 0.0 0.00 0.00 0.00 77 1014.2
20260510081205 44 17 0.0 0.0 0.00 0.00 0.00 76 1014.1
20260510080703 44 17 0.0 0.0 0.00 0.00 0.00 75 1014.1
20260510080204 44 17 0.0 0.0 0.00 0.00 0.00 75 1013.9
20260510075703 44 17 0.0 0.0 0.00 0.00 0.00 74 1013.9
20260510075203 45 17 0.0 0.0 0.00 0.00 0.00 73 1013.8
20260510074705 45 17 0.0 0.0 0.00 0.00 0.00 72 1013.8
20260510074205 45 17 0.0 0.0 0.00 0.00 0.00 71 1013.9
20260510073704 46 17 0.0 0.0 0.00 0.00 0.00 70 1013.8
20260510073203 46 17 0.0 0.0 0.00 0.00 0.00 69 1013.7
20260510072204 47 17 0.0 0.0 0.00 0.00 0.00 67 1013.6
20260510071704 47 17 0.0 0.0 0.00 0.00 0.00 66 1013.5
20260510070204 47 17 0.0 0.0 0.00 0.00 0.00 65 1013.3
20260510065703 47 17 0.0 0.0 0.00 0.00 0.00 65 1013.3
20260510065203 47 17 0.0 0.0 0.00 0.00 0.00 65 1013.3
20260510064704 48 17 0.0 0.0 0.00 0.00 0.00 65 1013.2
20260510064203 48 17 0.0 0.0 0.00 0.00 0.00 65 1013.3
20260510063203 48 17 0.0 0.0 0.00 0.00 0.00 65 1013.2
20260510062704 48 17 0.0 0.0 0.00 0.00 0.00 63 1013.2
20260510062204 49 17 0.0 0.0 0.00 0.00 0.00 63 1013.1
20260510061704 49 17 0.0 0.0 0.00 0.00 0.00 63 1013.0
20260510061204 49 17 0.0 0.0 0.00 0.00 0.00 63 1013.0
20260510060703 49 17 0.0 0.0 0.00 0.00 0.00 64 1012.9
20260510060204 49 17 0.0 0.0 0.00 0.00 0.00 63 1012.9
20260510055204 48 17 0.0 0.0 0.00 0.00 0.00 66 1012.7
20260510054703 47 17 0.0 0.0 0.00 0.00 0.00 70 1012.5
20260510054203 47 17 0.0 0.0 0.00 0.00 0.00 78 1012.4
20260510053704 47 17 0.0 0.0 0.00 0.00 0.00 81 1012.3
20260510053204 47 17 0.0 0.0 0.00 0.00 0.00 84 1012.1
20260510052704 47 17 0.0 0.0 0.00 0.00 0.00 84 1011.7
20260510051203 47 17 0.0 0.0 0.00 0.00 0.00 81 1011.4
20260510050704 47 17 0.0 0.0 0.00 0.00 0.00 80 1011.4
20260510045703 48 17 0.0 0.0 0.00 0.00 0.00 78 1011.2
20260510045205 48 17 0.0 0.0 0.00 0.00 0.00 77 1011.2
20260510044705 48 17 0.0 0.0 0.00 0.00 0.00 76 1011.1
20260510044203 48 17 0.0 0.0 0.00 0.00 0.00 76 1011.0
20260510043704 48 17 0.0 0.0 0.00 0.00 0.00 75 1010.9
20260510043203 48 17 0.0 0.0 0.00 0.00 0.00 74 1010.9
20260510042704 49 17 0.0 0.0 0.00 0.00 0.00 74 1010.8
20260510042204 49 17 0.0 0.0 0.00 0.00 0.00 73 1010.8
20260510041703 49 17 0.0 0.0 0.00 0.00 0.00 73 1010.7
20260510041203 49 17 0.0 0.0 0.00 0.00 0.00 73 1010.7
20260510040704 49 17 0.0 0.0 0.00 0.00 0.00 73 1010.6
20260510040204 50 17 0.0 0.0 0.00 0.00 0.00 73 1010.6
20260510035204 50 17 0.0 0.0 0.00 0.00 0.00 74 1010.5
20260510034703 50 17 0.0 0.0 0.00 0.00 0.00 72 1010.4
20260510033704 51 17 0.0 0.0 0.00 0.00 0.00 70 1010.2
20260510033203 51 17 0.0 0.0 0.00 0.00 0.00 69 1010.1
20260510032704 52 17 0.0 0.0 0.00 0.00 0.00 68 1010.1
20260510032203 52 17 0.0 0.0 0.00 0.00 0.00 67 1010.0
20260510031703 52 17 0.0 0.0 0.00 0.00 0.00 67 1010.0
20260510031204 52 17 0.0 0.0 0.00 0.00 0.00 67 1009.9
20260510030703 52 17 0.0 0.0 0.00 0.00 0.00 65 1009.9
20260510025204 53 17 0.0 0.0 0.00 0.00 0.00 62 1009.7
20260510024704 54 17 0.0 0.0 0.00 0.00 0.00 61 1009.6
20260510023703 54 17 0.0 0.0 0.00 0.00 0.00 60 1009.4
20260510023204 55 17 0.0 0.0 0.00 0.00 0.00 59 1009.3
20260510022704 55 17 0.0 0.0 0.00 0.00 0.00 59 1009.2
20260510022203 56 17 0.0 0.0 0.00 0.00 0.00 57 1009.2
20260510021704 56 17 0.0 0.0 0.00 0.00 0.00 56 1009.1
20260510021205 56 17 0.0 0.0 0.00 0.00 0.00 56 1009.0
20260510020703 57 17 0.0 0.0 0.00 0.00 0.00 55 1008.8
20260510020204 57 17 0.0 0.0 0.00 0.00 0.00 53 1008.6
20260510015704 58 17 0.0 0.0 0.00 0.00 0.00 53 1008.6
20260510015203 58 17 0.0 0.0 0.00 0.00 0.00 54 1008.4
20260510014705 59 17 0.0 0.0 0.00 0.00 0.00 52 1008.3
20260510014204 59 17 0.0 0.0 0.00 0.00 0.00 51 1008.2
20260510013203 60 17 0.0 0.0 0.00 0.00 0.00 49 1008.0
20260510012704 61 17 0.0 0.0 0.00 0.00 0.00 48 1007.9
20260510012204 61 17 0.0 0.0 0.00 0.00 0.00 46 1007.7
20260510011704 61 17 0.0 0.0 0.00 0.00 0.00 46 1007.6
20260510011205 62 17 0.0 0.0 0.00 0.00 0.00 45 1007.5
20260510010704 62 17 0.0 0.0 0.00 0.00 0.00 44 1007.3
20260510010203 63 17 0.0 0.0 0.00 0.00 0.00 44 1007.1
20260510005204 63 17 0.0 0.0 0.00 0.00 0.00 42 1006.9
20260510004704 64 17 0.0 0.0 0.00 0.00 0.00 41 1006.9
20260510004203 64 17 0.0 0.0 0.00 0.00 0.00 41 1006.7
20260510002704 65 17 0.0 0.0 0.00 0.00 0.00 42 1006.5
20260510002204 65 17 0.0 0.0 0.00 0.00 0.00 40 1006.4
20260510001703 66 17 0.0 0.0 0.00 0.00 0.00 40 1006.2
20260510001203 66 17 0.0 0.0 0.00 0.00 0.00 39 1006.0
20260510000704 66 17 0.0 0.0 0.00 0.00 0.00 40 1006.0
20260510000204 67 17 0.0 0.0 0.00 0.00 0.00 39 1005.9
20260509235705 67 17 0.0 0.0 0.00 0.00 0.00 39 1005.7
20260509235204 67 17 0.0 0.0 0.00 0.00 0.00 39 1005.7
20260509234703 67 17 0.0 0.0 0.00 0.00 0.00 39 1005.6
20260509234205 68 17 0.0 0.0 0.00 0.00 0.00 39 1005.5
20260509233703 68 17 0.0 0.0 0.00 0.00 0.00 38 1005.3
20260509233204 68 17 0.0 0.0 0.00 0.00 0.00 38 1005.3
20260509232703 68 17 0.0 0.0 0.00 0.00 0.00 37 1005.2
20260509232203 68 17 0.0 0.0 0.00 0.00 0.00 36 1005.2
20260509231703 69 17 0.0 0.0 0.00 0.00 0.00 35 1005.0
20260509231205 69 17 0.0 0.0 0.00 0.00 0.00 33 1005.1
20260509230703 70 17 0.0 0.0 0.00 0.00 0.00 33 1005.0
20260509230203 70 17 0.0 0.0 0.00 0.00 0.00 34 1004.8
20260509225203 70 17 0.0 0.0 0.00 0.00 0.00 34 1004.8
20260509224704 70 17 0.0 0.0 0.00 0.00 0.00 34 1004.7
20260509224203 70 17 0.0 0.0 0.00 0.00 0.00 33 1004.7
20260509223704 70 17 0.0 0.0 0.00 0.00 0.00 31 1004.6
20260509223204 71 17 0.0 0.0 0.00 0.00 0.00 32 1004.5
20260509222704 71 17 0.0 0.0 0.00 0.00 0.00 33 1004.4
20260509222204 71 17 0.0 0.0 0.00 0.00 0.00 31 1004.3
20260509221703 71 17 0.0 0.0 0.00 0.00 0.00 32 1004.3
20260509221203 71 17 0.0 0.0 0.00 0.00 0.00 32 1004.2
20260509220704 71 17 0.0 0.0 0.00 0.00 0.00 33 1004.1
20260509220204 71 17 0.0 2.0 0.00 0.00 0.00 33 1004.0
20260509215703 71 293 1.0 5.0 0.00 0.00 0.00 34 1004.0
20260509215204 71 285 0.0 0.0 0.00 0.00 0.00 31 1004.0
20260509214704 71 285 0.0 0.0 0.00 0.00 0.00 32 1003.9
20260509214204 71 285 0.0 0.0 0.00 0.00 0.00 32 1003.9
20260509213203 72 285 0.0 0.0 0.00 0.00 0.00 32 1003.7
20260509212704 72 285 1.0 9.0 0.00 0.00 0.00 32 1003.7
20260509212203 73 0 0.0 5.0 0.00 0.00 0.00 29 1003.7
20260509211703 73 0 0.0 8.0 0.00 0.00 0.00 28 1003.5
20260509211203 74 0 0.0 0.0 0.00 0.00 0.00 28 1003.4
20260509210203 74 0 0.0 8.0 0.00 0.00 0.00 28 1003.4
20260509205204 75 0 0.0 2.0 0.00 0.00 0.00 29 1003.3
20260509204704 75 0 1.0 3.0 0.00 0.00 0.00 28 1003.2
20260509204204 75 0 0.0 1.0 0.00 0.00 0.00 30 1003.0
20260509203704 76 0 0.0 0.0 0.00 0.00 0.00 29 1003.1
20260509203203 76 0 0.0 0.0 0.00 0.00 0.00 29 1003.1
20260509202703 75 0 0.0 1.0 0.00 0.00 0.00 30 1003.0
20260509202204 75 0 0.0 0.0 0.00 0.00 0.00 30 1003.0
20260509201203 76 0 0.0 0.0 0.00 0.00 0.00 29 1003.1
20260509200704 76 0 0.0 0.0 0.00 0.00 0.00 31 1003.1
20260509195704 76 0 0.0 0.0 0.00 0.00 0.00 29 1002.9
20260509195204 76 0 0.0 0.0 0.00 0.00 0.00 31 1003.0
20260509194704 75 0 1.0 5.0 0.00 0.00 0.00 30 1003.1
20260509193703 74 121 0.0 10.0 0.00 0.00 0.00 29 1003.0
20260509193203 74 11 1.0 12.0 0.00 0.00 0.00 30 1003.1
20260509192704 74 0 0.0 3.0 0.00 0.00 0.00 30 1003.2
20260509192203 74 21 1.0 5.0 0.00 0.00 0.00 32 1003.2
20260509191705 75 0 1.0 5.0 0.00 0.00 0.00 29 1003.2
20260509191203 77 17 1.0 3.0 0.00 0.00 0.00 28 1003.1
20260509190704 76 6 1.0 5.0 0.00 0.00 0.00 28 1003.1
20260509190204 76 6 0.0 0.0 0.00 0.00 0.00 29 1003.0
20260509185704 75 6 0.0 6.0 0.00 0.00 0.00 29 1003.1
20260509185204 75 21 0.0 18.0 0.00 0.00 0.00 29 1002.9
20260509184704 76 219 0.0 13.0 0.00 0.00 0.00 29 1002.8
20260509184204 76 217 0.0 2.0 0.00 0.00 0.00 28 1002.8
20260509183703 75 201 1.0 15.0 0.00 0.00 0.00 29 1002.7
20260509182203 73 11 0.0 0.0 0.00 0.00 0.00 37 1002.9
20260509181703 71 11 0.0 0.0 0.00 0.00 0.00 37 1003.0
20260509181203 70 11 0.0 0.0 0.00 0.00 0.00 40 1003.0
20260509175705 69 11 0.0 0.0 0.00 0.00 0.00 36 1003.2
20260509175204 69 11 0.0 0.0 0.00 0.00 0.00 35 1003.3
20260509174704 70 11 0.0 0.0 0.00 0.00 0.00 36 1003.3
20260509174204 70 11 0.0 0.0 0.00 0.00 0.00 35 1003.2
20260509173703 71 11 0.0 0.0 0.00 0.00 0.00 36 1003.2
20260509172703 70 11 0.0 0.0 0.00 0.00 0.00 36 1003.4
20260509172203 70 11 0.0 0.0 0.00 0.00 0.00 35 1003.5
20260509170703 70 11 0.0 0.0 0.00 0.00 0.00 35 1003.5
20260509170204 71 11 0.0 0.0 0.00 0.00 0.00 35 1003.5
20260509165204 72 11 0.0 0.0 0.00 0.00 0.00 36 1003.5
20260509164704 71 11 0.0 0.0 0.00 0.00 0.00 38 1003.5
20260509164204 70 11 0.0 3.0 0.00 0.00 0.00 40 1003.5
20260509163203 70 44 0.0 0.0 0.00 0.00 0.00 40 1003.5
20260509162204 69 44 0.0 0.0 0.00 0.00 0.00 44 1003.4
20260509161704 69 44 0.0 0.0 0.00 0.00 0.00 44 1003.4
20260509160704 69 44 0.0 0.0 0.00 0.00 0.00 47 1003.4
20260509160203 68 44 0.0 0.0 0.00 0.00 0.00 48 1003.4
20260509155704 68 44 0.0 0.0 0.00 0.00 0.00 48 1003.4
20260509155204 68 44 0.0 0.0 0.00 0.00 0.00 47 1003.3
20260509154704 68 44 0.0 0.0 0.00 0.00 0.00 48 1003.4
20260509154204 69 44 0.0 0.0 0.00 0.00 0.00 46 1003.4
20260509153703 69 44 0.0 0.0 0.00 0.00 0.00 47 1003.4
20260509153204 70 44 0.0 0.0 0.00 0.00 0.00 47 1003.3
20260509152703 70 44 0.0 0.0 0.00 0.00 0.00 48 1003.2
20260509152203 70 44 0.0 0.0 0.00 0.00 0.00 49 1003.3
20260509151704 70 44 0.0 0.0 0.00 0.00 0.00 48 1003.3
20260509151204 69 44 0.0 0.0 0.00 0.00 0.00 50 1003.2
20260509150704 69 44 0.0 0.0 0.00 0.00 0.00 51 1003.3
20260509150204 68 44 0.0 0.0 0.00 0.00 0.00 52 1003.3
20260509145704 68 44 0.0 0.0 0.00 0.00 0.00 52 1003.2
20260509145204 68 44 0.0 0.0 0.00 0.00 0.00 53 1003.2
20260509144704 67 44 0.0 0.0 0.00 0.00 0.00 58 1003.0
20260509143704 66 44 0.0 0.0 0.00 0.00 0.00 57 1003.0
20260509143204 66 44 0.0 0.0 0.00 0.00 0.00 57 1003.1
20260509142203 65 44 0.0 0.0 0.00 0.00 0.00 57 1003.1
20260509141703 65 44 0.0 0.0 0.00 0.00 0.00 60 1003.0
20260509141204 65 44 0.0 0.0 0.00 0.00 0.00 61 1001.5
20260509140703 64 44 0.0 0.0 0.00 0.00 0.00 62 1002.9
20260509140203 64 44 0.0 0.0 0.00 0.00 0.00 64 1002.9
20260509135704 63 44 0.0 0.0 0.00 0.00 0.00 65 1003.1
20260509135204 62 44 0.0 0.0 0.00 0.00 0.00 67 1002.9
20260509134704 62 44 0.0 0.0 0.00 0.00 0.00 66 1002.9
20260509134204 62 44 0.0 0.0 0.00 0.00 0.00 68 1002.8
20260509133705 61 44 0.0 0.0 0.00 0.00 0.00 69 1002.8
20260509133203 61 44 0.0 0.0 0.00 0.00 0.00 70 1002.7
20260509132703 60 44 0.0 0.0 0.00 0.00 0.00 72 1002.6
20260509132204 60 44 0.0 0.0 0.00 0.00 0.00 74 1002.6
20260509131203 59 44 0.0 0.0 0.00 0.00 0.00 75 1002.5
20260509130703 59 44 0.0 0.0 0.00 0.00 0.00 76 1002.8
20260509130203 58 44 0.0 0.0 0.00 0.00 0.00 78 1003.0
20260509125703 58 44 0.0 0.0 0.00 0.00 0.00 78 1003.1
20260509125203 58 44 0.0 0.0 0.00 0.00 0.00 79 1003.0
20260509124703 57 44 0.0 0.0 0.00 0.00 0.00 81 1003.0
20260509124203 57 44 0.0 0.0 0.00 0.00 0.00 81 1003.0
20260509123704 56 44 0.0 0.0 0.00 0.00 0.00 82 1003.0
20260509123203 56 44 0.0 0.0 0.00 0.00 0.00 82 1003.0
20260509122704 56 44 0.0 0.0 0.00 0.00 0.00 84 1002.9
20260509122204 55 44 0.0 0.0 0.00 0.00 0.00 84 1002.8
20260509121704 55 44 0.0 0.0 0.00 0.00 0.00 84 1002.8
20260509121203 55 44 0.0 0.0 0.00 0.00 0.00 85 1002.8
20260509120703 54 44 0.0 0.0 0.00 0.00 0.00 86 1002.7
20260509120203 54 44 0.0 0.0 0.00 0.00 0.00 86 1002.8
20260509115704 54 44 0.0 0.0 0.00 0.00 0.00 87 1002.6
20260509115203 54 44 0.0 0.0 0.00 0.00 0.00 87 1002.8
20260509114703 54 44 0.0 0.0 0.00 0.00 0.00 88 1002.6
20260509114203 53 44 0.0 0.0 0.00 0.00 0.00 88 1002.5
20260509113703 53 44 0.0 0.0 0.00 0.00 0.00 88 1002.4
20260509113204 53 44 0.0 0.0 0.00 0.00 0.00 88 1002.4
20260509112703 54 44 0.0 0.0 0.00 0.00 0.00 88 1002.3
20260509112204 54 44 0.0 0.0 0.00 0.00 0.00 88 1002.3
20260509111704 54 44 0.0 0.0 0.00 0.00 0.00 87 1002.2
20260509111203 54 44 0.0 0.0 0.00 0.00 0.00 87 1002.0
20260509110703 54 44 0.0 0.0 0.00 0.00 0.00 88 1001.9
20260509110203 54 44 0.0 0.0 0.00 0.00 0.00 88 1001.8
20260509105703 54 44 0.0 0.0 0.00 0.00 0.00 88 1001.9
20260509104704 54 44 0.0 0.0 0.00 0.00 0.00 87 1002.0
20260509104203 54 44 0.0 0.0 0.00 0.00 0.00 88 1001.8
20260509103704 54 44 0.0 0.0 0.00 0.00 0.00 88 1002.0
20260509103204 54 44 0.0 0.0 0.00 0.00 0.00 88 1002.0
20260509102703 54 44 0.0 0.0 0.00 0.00 0.00 88 1002.0
20260509101703 54 44 0.0 0.0 0.00 0.00 0.00 87 1002.3
20260509101203 54 44 0.0 0.0 0.00 0.00 0.00 88 1002.1
20260509095703 54 44 0.0 0.0 0.00 0.00 0.00 88 1001.9
20260509095203 54 44 0.0 0.0 0.00 0.00 0.00 88 1001.9
20260509094703 54 44 0.0 0.0 0.00 0.00 0.00 88 1002.0
20260509094203 54 44 0.0 0.0 0.00 0.00 0.00 88 1002.0
20260509093704 54 44 0.0 0.0 0.00 0.00 0.00 88 1002.0
20260509093204 54 44 0.0 0.0 0.00 0.00 0.00 88 1002.1
20260509092704 54 44 0.0 0.0 0.00 0.00 0.00 88 1002.1
20260509092204 54 44 0.0 0.0 0.00 0.00 0.00 88 1002.2